Lid_Strength_Index
-2 -0 -0 2 7 7 8 8 6 7 6 4 4 5 5 5 6 9 1 -0 -0 -0 -1 -1 -2 -2 -1 -2 -2 -2 -2 -2 -2 -2 -2 -2 -2 -2 -2 -2 -2 -2 -2 -2 -2 -2 -2 -2 -1
0 1 1 3 8 10 9 7 8 6 5 4 4 4 5 6 3 3 2 -0 -1 -1 -1 -1 -1 -2 -1 -2 -2 -2 -2 -2 -2 -2 -2 -2 -2 -2 -2 -2 -2 -2 -2 -2 -2 -2 -2 -2 -2
0 1 4 5 7 9 9 7 6 5 4 5 5 4 4 5 3 2 0 -0 -1 -1 -1 -1 -1 -1 -1 -2 -2 -2 -2 -2 -2 -2 -2 -2 -2 -2 -2 -2 -2 -2 -2 -2 -2 -2 -2 -2 -2
1 2 3 7 9 7 7 6 5 5 5 5 4 5 3 2 2 1 -0 -0 -0 -1 -1 -1 -1 -1 -1 -2 -2 -2 -2 -2 -2 -2 -2 -2 -2 -2 -2 -2 -2 -2 -2 -2 -2 -2 -2 -2 -2
1 3 7 8 8 7 6 6 5 5 6 5 4 5 5 2 1 0 0 -0 0 -0 -1 -1 -1 -1 -1 -2 -2 -2 -2 -2 -2 -2 -2 -2 -2 -2 -2 -2 -2 -2 -2 -2 -2 -2 -2 -2 -2
4 4 8 9 8 7 6 5 5 5 5 5 5 5 4 1 1 1 -0 -0 -1 -0 -1 -1 0 -0 -1 -1 -1 -2 -2 -2 -2 -2 -2 -2 -2 -2 -2 -2 -2 -2 -2 -2 -2 -2 -2 -2 -2
5 6 8 8 8 7 6 5 5 5 6 6 4 6 4 2 1 0 0 -0 -0 -1 -0 -1 -1 -1 0 -0 -1 -1 -1 -2 -2 -2 -2 -2 -2 -3 -2 -3 -2 -2 -2 -1 -1 -1 -2 -2 -2
4 5 7 7 8 8 5 5 5 5 6 4 3 6 5 2 1 0 0 0 -0 -0 -0 -1 -1 -1 -1 -1 1 0 -1 -1 -1 -1 -1 -1 -2 -2 -1 -1 -1 -1 -1 -1 -0 -1 -2 -2 -2
4 7 8 8 8 7 5 6 5 4 5 5 4 4 3 1 1 1 1 1 1 1 0 -1 -0 -1 -1 -1 -0 1 1 0 -0 -1 0 0 -1 -1 -0 0 -0 -0 1 1 1 -0 -0 0 0
6 7 7 6 6 6 6 6 5 6 6 6 5 4 3 2 2 3 3 2 2 1 1 -0 -0 -0 -0 -0 -1 -1 -1 -1 -1 -1 -1 -2 -2 -1 0 2 1 1 0 1 1 1 0 1 1
6 7 6 6 6 6 6 6 5 6 6 5 5 4 4 3 2 3 2 2 2 1 1 0 -0 -1 -1 -1 -1 -1 -1 -1 -2 -1 -1 -1 -1 -1 -0 1 1 1 2 3 2 2 2 1 1
8 7 7 6 6 6 7 6 6 6 5 4 4 4 4 3 3 3 2 2 2 1 1 0 -0 -0 -1 -1 -1 -1 -1 -1 -1 -1 -1 -1 -1 0 1 1 1 1 0 1 1 2 2 2 2
8 7 7 7 7 6 6 7 6 6 5 4 5 5 4 3 3 2 2 1 1 1 1 0 -0 -0 -0 -0 -1 -1 -1 -1 -1 -1 -1 -1 0 1 0 1 2 1 1 1 2 3 3 3 4
6 7 7 6 6 6 7 7 7 6 5 5 5 5 5 4 3 2 2 2 2 1 1 0 0 -0 -0 -0 -0 -1 -1 -1 -1 -1 -1 -1 -0 0 1 2 3 2 2 2 2 3 4 5 6
6 8 7 7 6 7 6 8 8 5 5 6 5 5 5 4 4 3 2 2 1 1 1 1 0 -0 -0 -0 -0 -1 -1 -1 -1 -1 -1 -1 -1 1 2 2 3 3 2 1 3 4 6 7 8
8 8 10 7 7 7 7 10 6 5 5 6 6 5 5 5 4 3 2 1 1 1 1 0 0 -0 -0 -0 -0 -0 -1 -1 -1 -1 -1 -1 -0 1 2 3 3 3 3 3 4 6 9 10 10
8 11 10 9 7 7 8 9 6 6 6 6 6 5 5 5 4 4 3 1 1 1 1 1 0 0 0 -0 -0 -1 -1 -1 -1 -1 -0 -1 -0 1 2 3 3 3 4 5 6 9 10 11 10
11 10 10 10 8 8 9 9 7 6 6 6 6 5 5 5 4 4 4 2 1 1 1 1 0 0 0 0 1 0 -0 -0 -1 -0 -0 0 1 1 2 3 4 5 5 6 8 10 10 11 11
9 10 10 9 8 9 9 9 8 7 7 7 6 6 6 5 4 3 3 3 2 1 1 1 1 1 0 1 1 1 1 1 1 1 2 0 1 2 1 3 5 6 7 7 9 10 11 12 12
9 10 10 9 8 10 10 10 8 7 7 6 6 6 5 5 4 4 3 3 3 3 2 1 1 2 1 1 1 1 1 1 1 4 4 4 3 2 3 4 6 7 7 8 10 11 13 13 12
10 10 10 10 9 9 10 11 9 7 7 6 6 5 5 5 5 4 4 3 3 4 3 3 2 3 2 2 2 2 2 3 4 5 5 6 6 5 5 5 6 7 8 8 11 10 12 13 12
12 9 9 10 11 13 10 14 10 9 8 7 6 6 5 5 4 4 4 3 4 3 3 3 3 3 3 2 3 3 4 5 5 4 5 6 7 7 6 6 6 7 7 7 10 11 10 11 13
10 9 9 10 11 11 12 13 11 9 10 8 7 5 5 4 4 4 4 4 3 4 4 4 4 4 3 3 3 3 5 4 3 3 5 7 9 8 8 7 7 7 7 7 9 10 10 11 11
8 9 9 10 11 15 12 12 12 10 9 8 7 6 5 5 5 5 5 5 5 4 4 4 4 5 4 3 3 4 4 4 3 4 6 9 10 11 9 10 9 8 8 8 9 9 9 10 10
9 11 14 15 15 16 11 12 12 9 8 8 7 6 6 6 5 5 6 7 6 6 5 5 5 5 4 4 4 4 4 4 4 4 5 8 10 12 12 10 10 9 9 9 9 9 9 10 10
10 10 13 18 16 14 13 15 12 8 7 7 6 6 6 6 6 6 5 6 6 7 6 6 6 6 5 4 4 4 4 4 4 5 5 6 8 9 10 12 11 10 9 9 9 10 10 10 10
11 12 9 12 14 15 13 11 9 8 9 8 7 6 6 5 5 5 5 6 7 7 7 6 6 6 5 5 5 5 5 4 4 5 5 6 6 7 9 12 13 12 12 11 10 11 11 11 11
9 8 13 12 18 18 15 13 13 10 9 7 8 7 6 5 5 6 6 7 7 7 7 6 6 6 6 5 5 6 5 5 5 5 6 7 7 9 11 13 13 14 13 13 12 13 13 13 13
11 12 11 11 12 16 17 14 9 8 8 8 7 7 7 6 5 6 7 7 7 7 7 7 6 6 6 6 6 6 6 5 6 6 6 8 9 12 13 15 15 15 15 14 13 14 14 14 15
10 11 11 13 15 13 13 14 7 7 8 7 7 7 6 7 6 6 7 7 7 7 7 7 7 6 6 6 6 6 7 7 7 7 8 9 12 13 14 15 15 16 15 15 15 15 15 15 16